| time (UTC) | temp C | wind direction | speed KPH | gust KPH | rain 1hr cm | rain 24hr cm | rain mn cm | humidity % | barometer mb |
| 20260505184004 | 26 | 360 | 8.0 | 20.9 | 0.00 | 0.00 | 0.00 | 42 | 1002.9 |
| 20260505183503 | 25 | 360 | 3.2 | 20.9 | 0.00 | 0.00 | 0.00 | 44 | 1003.1 |
| 20260505183009 | 25 | 360 | 6.4 | 20.9 | 0.00 | 0.00 | 0.00 | 43 | 1003.3 |
| 20260505182506 | 25 | 360 | 4.8 | 25.7 | 0.00 | 0.00 | 0.00 | 44 | 1003.4 |
| 20260505182009 | 25 | 360 | 6.4 | 25.7 | 0.00 | 0.00 | 0.00 | 44 | 1003.4 |
| 20260505181515 | 25 | 360 | 8.0 | 22.5 | 0.00 | 0.00 | 0.00 | 44 | 1003.4 |
| 20260505181009 | 25 | 360 | 6.4 | 22.5 | 0.00 | 0.00 | 0.00 | 44 | 1003.4 |
| 20260505180508 | 24 | 360 | 8.0 | 25.7 | 0.00 | 0.00 | 0.00 | 44 | 1003.4 |
| 20260505180018 | 24 | 360 | 6.4 | 25.7 | 0.00 | 0.00 | 0.00 | 45 | 1003.4 |
| 20260505175507 | 24 | 360 | 8.0 | 25.7 | 0.00 | 0.00 | 0.00 | 44 | 1003.6 |
| 20260505175014 | 24 | 360 | 9.7 | 25.7 | 0.00 | 0.00 | 0.00 | 44 | 1003.8 |
| 20260505174524 | 23 | 360 | 6.4 | 25.7 | 0.00 | 0.00 | 0.00 | 45 | 1003.7 |
| 20260505174016 | 24 | 360 | 9.7 | 16.1 | 0.00 | 0.00 | 0.00 | 44 | 1003.9 |
| 20260505173503 | 24 | 360 | 6.4 | 20.9 | 0.00 | 0.00 | 0.00 | 45 | 1004.0 |
| 20260505173005 | 23 | 360 | 9.7 | 20.9 | 0.00 | 0.00 | 0.00 | 46 | 1003.9 |
| 20260505172507 | 24 | 360 | 12.9 | 22.5 | 0.00 | 0.00 | 0.00 | 44 | 1003.8 |
| 20260505172008 | 25 | 360 | 8.0 | 25.7 | 0.00 | 0.00 | 0.00 | 44 | 1003.9 |
| 20260505171519 | 24 | 360 | 11.3 | 25.7 | 0.00 | 0.00 | 0.00 | 44 | 1003.9 |
| 20260505171007 | 24 | 360 | 6.4 | 24.1 | 0.00 | 0.00 | 0.00 | 45 | 1003.8 |
| 20260505170509 | 24 | 360 | 8.0 | 24.1 | 0.00 | 0.00 | 0.00 | 45 | 1003.9 |
| 20260505170027 | 24 | 360 | 3.2 | 17.7 | 0.00 | 0.00 | 0.00 | 46 | 1004.0 |
| 20260505165511 | 23 | 360 | 8.0 | 17.7 | 0.00 | 0.00 | 0.00 | 46 | 1004.1 |
| 20260505165011 | 23 | 360 | 8.0 | 27.4 | 0.00 | 0.00 | 0.00 | 44 | 1004.0 |
| 20260505164521 | 23 | 360 | 9.7 | 27.4 | 0.00 | 0.00 | 0.00 | 46 | 1004.3 |
| 20260505164010 | 23 | 360 | 8.0 | 22.5 | 0.00 | 0.00 | 0.00 | 44 | 1004.3 |
| 20260505163508 | 23 | 360 | 4.8 | 22.5 | 0.00 | 0.00 | 0.00 | 47 | 1004.5 |
| 20260505163025 | 23 | 360 | 4.8 | 16.1 | 0.00 | 0.00 | 0.00 | 46 | 1004.7 |
| 20260505162509 | 23 | 360 | 8.0 | 17.7 | 0.00 | 0.00 | 0.00 | 45 | 1004.8 |
| 20260505162008 | 23 | 360 | 9.7 | 17.7 | 0.00 | 0.00 | 0.00 | 48 | 1004.9 |
| 20260505161510 | 22 | 360 | 4.8 | 22.5 | 0.00 | 0.00 | 0.00 | 46 | 1005.1 |
| 20260505161007 | 22 | 360 | 6.4 | 22.5 | 0.00 | 0.00 | 0.00 | 48 | 1005.1 |
| 20260505160512 | 22 | 360 | 3.2 | 14.5 | 0.00 | 0.00 | 0.00 | 51 | 1005.2 |
| 20260505153026 | 22 | 360 | 8.0 | 22.5 | 0.00 | 0.00 | 0.00 | 46 | 1005.8 |
| 20260505152508 | 22 | 360 | 6.4 | 14.5 | 0.00 | 0.00 | 0.00 | 50 | 1005.9 |
| 20260505152013 | 21 | 360 | 3.2 | 17.7 | 0.00 | 0.00 | 0.00 | 49 | 1006.0 |
| 20260505151532 | 21 | 360 | 6.4 | 19.3 | 0.00 | 0.00 | 0.00 | 49 | 1006.2 |
| 20260505151009 | 21 | 360 | 9.7 | 19.3 | 0.00 | 0.00 | 0.00 | 46 | 1006.1 |
| 20260505150510 | 21 | 360 | 4.8 | 17.7 | 0.00 | 0.00 | 0.00 | 49 | 1006.1 |
| 20260505140508 | 19 | 360 | 6.4 | 16.1 | 0.00 | 0.00 | 0.00 | 52 | 1005.9 |
| 20260505125004 | 15 | 360 | 0.0 | 16.1 | 0.00 | 0.00 | 0.00 | 66 | 1006.6 |
| 20260505124504 | 15 | 360 | 3.2 | 16.1 | 0.00 | 0.00 | 0.00 | 69 | 1006.7 |
| 20260505124004 | 15 | 360 | 4.8 | 12.9 | 0.00 | 0.00 | 0.00 | 66 | 1006.8 |
| 20260505123503 | 14 | 360 | 4.8 | 12.9 | 0.00 | 0.00 | 0.00 | 68 | 1006.9 |
| 20260505123004 | 13 | 360 | 1.6 | 12.9 | 0.00 | 0.00 | 0.00 | 71 | 1006.9 |
| 20260505122503 | 13 | 360 | 1.6 | 14.5 | 0.00 | 0.00 | 0.00 | 74 | 1006.9 |
| 20260505122003 | 13 | 360 | 4.8 | 14.5 | 0.00 | 0.00 | 0.00 | 75 | 1006.9 |
| 20260505121504 | 12 | 360 | 3.2 | 8.0 | 0.00 | 0.00 | 0.00 | 78 | 1007.0 |
| 20260505121003 | 12 | 360 | 3.2 | 4.8 | 0.00 | 0.00 | 0.00 | 81 | 1007.0 |
| 20260505120503 | 11 | 24 | 1.6 | 8.0 | 0.00 | 0.00 | 0.00 | 82 | 1007.0 |
| 20260505120026 | 10 | 360 | 1.6 | 12.9 | 0.00 | 0.00 | 0.00 | 84 | 1007.1 |
| 20260505115502 | 10 | 161 | 3.2 | 12.9 | 0.00 | 0.00 | 0.00 | 97 | 1007.0 |
| 20260505115003 | 9 | 360 | 0.0 | 3.2 | 0.00 | 0.00 | 0.00 | 97 | 1007.0 |
| 20260505114504 | 8 | 360 | 0.0 | 3.2 | 0.00 | 0.00 | 0.00 | 97 | 1007.1 |
| 20260505114004 | 8 | 360 | 1.6 | 3.2 | 0.00 | 0.00 | 0.00 | 97 | 1007.1 |
| 20260505113505 | 7 | 360 | 0.0 | 6.4 | 0.00 | 0.00 | 0.00 | 97 | 1007.1 |
| 20260505113007 | 6 | 360 | 1.6 | 6.4 | 0.00 | 0.00 | 0.00 | 97 | 1007.1 |
| 20260505112503 | 6 | 360 | 0.0 | 3.2 | 0.00 | 0.00 | 0.00 | 97 | 1007.2 |
| 20260505112003 | 6 | 28 | 0.0 | 3.2 | 0.00 | 0.00 | 0.00 | 97 | 1007.2 |
| 20260505111507 | 5 | 360 | 0.0 | 3.2 | 0.00 | 0.00 | 0.00 | 96 | 1007.2 |
| 20260505111006 | 5 | 360 | 0.0 | 3.2 | 0.00 | 0.00 | 0.00 | 96 | 1007.2 |
| 20260505110502 | 5 | 360 | 0.0 | 3.2 | 0.00 | 0.00 | 0.00 | 96 | 1007.1 |
| 20260505102006 | 1 | 360 | 0.0 | 0.0 | 0.00 | 0.00 | 0.00 | 95 | 1007.2 |
| 20260505101519 | 1 | 360 | 0.0 | 0.0 | 0.00 | 0.00 | 0.00 | 95 | 1007.2 |
| 20260505101003 | 1 | 360 | 0.0 | 3.2 | 0.00 | 0.00 | 0.00 | 95 | 1007.2 |
| 20260505100503 | 1 | 360 | 0.0 | 3.2 | 0.00 | 0.00 | 0.00 | 95 | 1007.1 |
| 20260505100019 | 1 | 360 | 0.0 | 3.2 | 0.00 | 0.00 | 0.00 | 95 | 1007.0 |
| 20260505095504 | 1 | 360 | 0.0 | 3.2 | 0.00 | 0.00 | 0.00 | 95 | 1007.0 |
| 20260505095003 | 1 | 360 | 0.0 | 0.0 | 0.00 | 0.00 | 0.00 | 95 | 1007.0 |
| 20260505094508 | 1 | 360 | 0.0 | 3.2 | 0.00 | 0.00 | 0.00 | 95 | 1007.1 |
| 20260505094004 | 1 | 360 | 0.0 | 3.2 | 0.00 | 0.00 | 0.00 | 95 | 1007.1 |
| 20260505093504 | 1 | 360 | 0.0 | 0.0 | 0.00 | 0.00 | 0.00 | 94 | 1007.0 |
| 20260505093008 | 1 | 360 | 0.0 | 0.0 | 0.00 | 0.00 | 0.00 | 94 | 1006.9 |
| 20260505092507 | 1 | 360 | 0.0 | 0.0 | 0.00 | 0.00 | 0.00 | 94 | 1007.0 |
| 20260505092007 | 1 | 360 | 0.0 | 0.0 | 0.00 | 0.00 | 0.00 | 94 | 1007.0 |
| 20260505091522 | 1 | 360 | 0.0 | 0.0 | 0.00 | 0.00 | 0.00 | 94 | 1007.0 |
| 20260505091005 | 1 | 360 | 0.0 | 0.0 | 0.00 | 0.00 | 0.00 | 94 | 1007.0 |
| 20260505090506 | 1 | 360 | 0.0 | 3.2 | 0.00 | 0.00 | 0.00 | 94 | 1007.0 |
| 20260505090026 | 1 | 360 | 0.0 | 3.2 | 0.00 | 0.00 | 0.00 | 94 | 1007.1 |
| 20260505085506 | 1 | 360 | 0.0 | 0.0 | 0.00 | 0.00 | 0.00 | 94 | 1007.1 |
| 20260505085004 | 1 | 360 | 0.0 | 3.2 | 0.00 | 0.00 | 0.00 | 94 | 1007.1 |
| 20260505084512 | 1 | 360 | 0.0 | 1.6 | 0.00 | 0.00 | 0.00 | 94 | 1007.1 |
| 20260505084004 | 1 | 360 | 0.0 | 0.0 | 0.00 | 0.00 | 0.00 | 94 | 1007.1 |
| 20260505083507 | 1 | 360 | 0.0 | 0.0 | 0.00 | 0.00 | 0.00 | 94 | 1007.2 |
| 20260505083011 | 1 | 360 | 0.0 | 0.0 | 0.00 | 0.00 | 0.00 | 94 | 1007.2 |
| 20260505082504 | 1 | 360 | 0.0 | 0.0 | 0.00 | 0.00 | 0.00 | 94 | 1007.2 |
| 20260505082007 | 1 | 360 | 0.0 | 0.0 | 0.00 | 0.00 | 0.00 | 94 | 1007.2 |
| 20260505081516 | 1 | 360 | 0.0 | 0.0 | 0.00 | 0.00 | 0.00 | 94 | 1007.2 |
| 20260505081007 | 1 | 360 | 0.0 | 3.2 | 0.00 | 0.00 | 0.00 | 94 | 1007.3 |
| 20260505080507 | 1 | 360 | 0.0 | 3.2 | 0.00 | 0.00 | 0.00 | 94 | 1007.4 |
| 20260505080016 | 1 | 360 | 0.0 | 3.2 | 0.00 | 0.00 | 0.00 | 94 | 1007.4 |
| 20260505075505 | 1 | 360 | 0.0 | 1.6 | 0.00 | 0.00 | 0.00 | 94 | 1007.3 |
| 20260505075007 | 1 | 360 | 0.0 | 0.0 | 0.00 | 0.00 | 0.00 | 94 | 1007.3 |
| 20260505074515 | 1 | 360 | 0.0 | 1.6 | 0.00 | 0.00 | 0.00 | 94 | 1007.3 |
| 20260505074007 | 1 | 360 | 0.0 | 1.6 | 0.00 | 0.00 | 0.00 | 94 | 1007.3 |
| 20260505073507 | 1 | 360 | 0.0 | 1.6 | 0.00 | 0.00 | 0.00 | 94 | 1007.3 |
| 20260505073028 | 1 | 360 | 0.0 | 0.0 | 0.00 | 0.00 | 0.00 | 94 | 1007.3 |
| 20260505072511 | 1 | 360 | 0.0 | 0.0 | 0.00 | 0.00 | 0.00 | 94 | 1007.3 |
| 20260505072009 | 1 | 360 | 0.0 | 3.2 | 0.00 | 0.00 | 0.00 | 94 | 1007.3 |
| 20260505071516 | 1 | 360 | 0.0 | 3.2 | 0.00 | 0.00 | 0.00 | 94 | 1007.3 |
| 20260505071004 | 1 | 360 | 0.0 | 3.2 | 0.00 | 0.00 | 0.00 | 94 | 1007.2 |
| 20260505070510 | 1 | 360 | 0.0 | 3.2 | 0.00 | 0.00 | 0.00 | 94 | 1007.2 |
| 20260505070020 | 1 | 360 | 0.0 | 1.6 | 0.00 | 0.00 | 0.00 | 94 | 1007.3 |
| 20260505065507 | 1 | 360 | 0.0 | 1.6 | 0.00 | 0.00 | 0.00 | 94 | 1007.3 |
| 20260505065008 | 1 | 360 | 0.0 | 0.0 | 0.00 | 0.00 | 0.00 | 94 | 1007.3 |
| 20260505064534 | 1 | 360 | 0.0 | 0.0 | 0.00 | 0.00 | 0.00 | 93 | 1007.4 |
| 20260505064005 | 2 | 360 | 0.0 | 3.2 | 0.00 | 0.00 | 0.00 | 93 | 1007.4 |
| 20260505063507 | 2 | 360 | 0.0 | 3.2 | 0.00 | 0.00 | 0.00 | 93 | 1007.4 |
| 20260505063018 | 2 | 360 | 0.0 | 3.2 | 0.00 | 0.00 | 0.00 | 94 | 1007.4 |
| 20260505062510 | 2 | 360 | 0.0 | 3.2 | 0.00 | 0.00 | 0.00 | 94 | 1007.3 |
| 20260505062011 | 2 | 360 | 0.0 | 0.0 | 0.00 | 0.00 | 0.00 | 94 | 1007.3 |
| 20260505061530 | 2 | 360 | 0.0 | 0.0 | 0.00 | 0.00 | 0.00 | 93 | 1007.3 |
| 20260505061008 | 2 | 360 | 0.0 | 0.0 | 0.00 | 0.00 | 0.00 | 93 | 1007.2 |
| 20260505060512 | 2 | 360 | 0.0 | 0.0 | 0.00 | 0.00 | 0.00 | 93 | 1007.2 |
| 20260505060019 | 2 | 360 | 0.0 | 3.2 | 0.00 | 0.00 | 0.00 | 93 | 1007.2 |
| 20260505055511 | 2 | 360 | 0.0 | 3.2 | 0.00 | 0.00 | 0.00 | 93 | 1007.3 |
| 20260505055010 | 2 | 360 | 0.0 | 3.2 | 0.00 | 0.00 | 0.00 | 93 | 1007.3 |
| 20260505054530 | 2 | 360 | 0.0 | 0.0 | 0.00 | 0.00 | 0.00 | 93 | 1007.2 |
| 20260505054012 | 2 | 360 | 0.0 | 0.0 | 0.00 | 0.00 | 0.00 | 93 | 1007.2 |
| 20260505053509 | 2 | 360 | 0.0 | 3.2 | 0.00 | 0.00 | 0.00 | 93 | 1007.2 |
| 20260505053018 | 2 | 360 | 0.0 | 3.2 | 0.00 | 0.00 | 0.00 | 93 | 1007.2 |
| 20260505052510 | 2 | 360 | 0.0 | 0.0 | 0.00 | 0.00 | 0.00 | 93 | 1007.1 |
| 20260505052011 | 2 | 360 | 0.0 | 0.0 | 0.00 | 0.00 | 0.00 | 93 | 1007.1 |
| 20260505051521 | 2 | 360 | 0.0 | 3.2 | 0.00 | 0.00 | 0.00 | 93 | 1007.1 |
| 20260505051009 | 3 | 360 | 0.0 | 3.2 | 0.00 | 0.00 | 0.00 | 93 | 1007.1 |
| 20260505050507 | 3 | 360 | 0.0 | 3.2 | 0.00 | 0.00 | 0.00 | 93 | 1007.2 |
| 20260505041510 | 3 | 360 | 0.0 | 3.2 | 0.00 | 0.00 | 0.00 | 92 | 1006.8 |
| 20260505041004 | 3 | 360 | 0.0 | 1.6 | 0.00 | 0.00 | 0.00 | 92 | 1006.8 |
| 20260505040506 | 3 | 360 | 0.0 | 3.2 | 0.00 | 0.00 | 0.00 | 92 | 1006.8 |
| 20260505040008 | 4 | 360 | 0.0 | 3.2 | 0.00 | 0.00 | 0.00 | 92 | 1006.8 |
| 20260505035506 | 4 | 360 | 0.0 | 3.2 | 0.00 | 0.00 | 0.00 | 92 | 1006.8 |
| 20260505035003 | 4 | 360 | 0.0 | 3.2 | 0.00 | 0.00 | 0.00 | 92 | 1006.8 |
| 20260505034513 | 4 | 360 | 0.0 | 3.2 | 0.00 | 0.00 | 0.00 | 92 | 1006.7 |
| 20260505034011 | 4 | 360 | 0.0 | 3.2 | 0.00 | 0.00 | 0.00 | 92 | 1006.7 |
| 20260505033507 | 5 | 360 | 0.0 | 3.2 | 0.00 | 0.00 | 0.00 | 92 | 1006.6 |
| 20260505033021 | 5 | 360 | 0.0 | 3.2 | 0.00 | 0.00 | 0.00 | 91 | 1006.7 |
| 20260505032507 | 5 | 360 | 0.0 | 1.6 | 0.00 | 0.00 | 0.00 | 91 | 1006.7 |
| 20260505032007 | 5 | 360 | 0.0 | 3.2 | 0.00 | 0.00 | 0.00 | 91 | 1006.7 |
| 20260505031539 | 5 | 360 | 0.0 | 3.2 | 0.00 | 0.00 | 0.00 | 91 | 1006.6 |
| 20260505031007 | 5 | 360 | 0.0 | 0.0 | 0.00 | 0.00 | 0.00 | 91 | 1006.7 |
| 20260505030504 | 5 | 360 | 0.0 | 0.0 | 0.00 | 0.00 | 0.00 | 91 | 1006.6 |
| 20260505030009 | 5 | 360 | 0.0 | 3.2 | 0.00 | 0.00 | 0.00 | 91 | 1006.6 |
| 20260505025504 | 5 | 360 | 0.0 | 3.2 | 0.00 | 0.00 | 0.00 | 91 | 1006.7 |
| 20260505025004 | 5 | 360 | 0.0 | 3.2 | 0.00 | 0.00 | 0.00 | 91 | 1006.9 |
| 20260505024520 | 5 | 360 | 0.0 | 3.2 | 0.00 | 0.00 | 0.00 | 91 | 1006.9 |
| 20260505024007 | 5 | 360 | 0.0 | 3.2 | 0.00 | 0.00 | 0.00 | 91 | 1007.0 |
| 20260505023507 | 6 | 360 | 0.0 | 3.2 | 0.00 | 0.00 | 0.00 | 91 | 1006.9 |
| 20260505023014 | 6 | 360 | 0.0 | 3.2 | 0.00 | 0.00 | 0.00 | 91 | 1006.9 |
| 20260505022507 | 6 | 360 | 0.0 | 3.2 | 0.00 | 0.00 | 0.00 | 91 | 1007.0 |
| 20260505022007 | 6 | 360 | 0.0 | 3.2 | 0.00 | 0.00 | 0.00 | 90 | 1007.1 |
| 20260505021525 | 6 | 360 | 0.0 | 3.2 | 0.00 | 0.00 | 0.00 | 90 | 1007.1 |
| 20260505021011 | 6 | 360 | 0.0 | 3.2 | 0.00 | 0.00 | 0.00 | 90 | 1007.1 |
| 20260505020507 | 6 | 360 | 0.0 | 3.2 | 0.00 | 0.00 | 0.00 | 90 | 1006.9 |
| 20260505020031 | 6 | 360 | 0.0 | 3.2 | 0.00 | 0.00 | 0.00 | 90 | 1006.9 |
| 20260505015508 | 6 | 360 | 0.0 | 3.2 | 0.00 | 0.00 | 0.00 | 90 | 1006.9 |
| 20260505015003 | 6 | 360 | 0.0 | 0.0 | 0.00 | 0.00 | 0.00 | 90 | 1006.8 |
| 20260505014509 | 6 | 360 | 0.0 | 0.0 | 0.00 | 0.00 | 0.00 | 90 | 1006.9 |
| 20260505014008 | 7 | 360 | 0.0 | 0.0 | 0.00 | 0.00 | 0.00 | 89 | 1006.8 |
| 20260505013509 | 7 | 360 | 0.0 | 0.0 | 0.00 | 0.00 | 0.00 | 89 | 1007.0 |
| 20260505013014 | 7 | 360 | 0.0 | 3.2 | 0.00 | 0.00 | 0.00 | 89 | 1006.8 |
| 20260505012505 | 7 | 360 | 0.0 | 3.2 | 0.00 | 0.00 | 0.00 | 89 | 1006.8 |
| 20260505012009 | 7 | 360 | 0.0 | 3.2 | 0.00 | 0.00 | 0.00 | 89 | 1006.8 |
| 20260505011529 | 7 | 360 | 0.0 | 3.2 | 0.00 | 0.00 | 0.00 | 89 | 1006.5 |
| 20260505011005 | 7 | 360 | 0.0 | 3.2 | 0.00 | 0.00 | 0.00 | 88 | 1006.4 |
| 20260505010508 | 7 | 360 | 0.0 | 3.2 | 0.00 | 0.00 | 0.00 | 88 | 1006.2 |
| 20260505010020 | 7 | 360 | 1.6 | 3.2 | 0.00 | 0.00 | 0.00 | 88 | 1006.2 |
| 20260505005507 | 8 | 360 | 0.0 | 3.2 | 0.00 | 0.00 | 0.00 | 87 | 1006.2 |
| 20260505005009 | 8 | 360 | 0.0 | 0.0 | 0.00 | 0.00 | 0.00 | 87 | 1006.2 |
| 20260505004542 | 8 | 360 | 0.0 | 3.2 | 0.00 | 0.00 | 0.00 | 87 | 1006.1 |
| 20260505004008 | 8 | 360 | 0.0 | 3.2 | 0.00 | 0.00 | 0.00 | 86 | 1006.1 |
| 20260505003511 | 8 | 360 | 0.0 | 3.2 | 0.00 | 0.00 | 0.00 | 85 | 1006.0 |
| 20260505003009 | 8 | 360 | 0.0 | 3.2 | 0.00 | 0.00 | 0.00 | 85 | 1005.9 |
| 20260505002514 | 9 | 360 | 0.0 | 3.2 | 0.00 | 0.00 | 0.00 | 84 | 1005.8 |
| 20260505002012 | 9 | 360 | 0.0 | 1.6 | 0.00 | 0.00 | 0.00 | 84 | 1005.7 |
| 20260505001519 | 10 | 360 | 0.0 | 3.2 | 0.00 | 0.00 | 0.00 | 84 | 1005.6 |
| 20260505001010 | 10 | 360 | 0.0 | 3.2 | 0.00 | 0.00 | 0.00 | 83 | 1005.5 |
| 20260505000508 | 10 | 360 | 0.0 | 3.2 | 0.00 | 0.00 | 0.00 | 84 | 1005.5 |
| 20260505000035 | 10 | 360 | 0.0 | 3.2 | 0.00 | 0.00 | 0.00 | 82 | 1005.4 |
| 20260504235508 | 10 | 360 | 0.0 | 3.2 | 0.00 | 0.00 | 0.00 | 81 | 1005.4 |
| 20260504235010 | 10 | 360 | 0.0 | 3.2 | 0.00 | 0.00 | 0.00 | 82 | 1005.4 |
| 20260504234524 | 11 | 360 | 0.0 | 3.2 | 0.00 | 0.00 | 0.00 | 83 | 1005.3 |
| 20260504234009 | 11 | 360 | 0.0 | 3.2 | 0.00 | 0.00 | 0.00 | 82 | 1005.4 |
| 20260504233508 | 11 | 360 | 0.0 | 3.2 | 0.00 | 0.00 | 0.00 | 81 | 1005.4 |
| 20260504233026 | 11 | 360 | 0.0 | 3.2 | 0.00 | 0.00 | 0.00 | 79 | 1005.3 |
| 20260504232510 | 11 | 360 | 0.0 | 3.2 | 0.00 | 0.00 | 0.00 | 79 | 1005.2 |
| 20260504232013 | 12 | 360 | 0.0 | 3.2 | 0.00 | 0.00 | 0.00 | 79 | 1005.1 |
| 20260504231510 | 12 | 360 | 0.0 | 3.2 | 0.00 | 0.00 | 0.00 | 77 | 1005.1 |
| 20260504231007 | 12 | 360 | 0.0 | 3.2 | 0.00 | 0.00 | 0.00 | 77 | 1005.0 |
| 20260504230505 | 12 | 360 | 0.0 | 3.2 | 0.00 | 0.00 | 0.00 | 76 | 1005.0 |
| 20260504230019 | 12 | 360 | 0.0 | 3.2 | 0.00 | 0.00 | 0.00 | 77 | 1005.0 |
| 20260504225507 | 12 | 360 | 0.0 | 3.2 | 0.00 | 0.00 | 0.00 | 75 | 1004.9 |
| 20260504225010 | 13 | 360 | 0.0 | 3.2 | 0.00 | 0.00 | 0.00 | 72 | 1004.9 |
| 20260504224520 | 13 | 360 | 0.0 | 3.2 | 0.00 | 0.00 | 0.00 | 71 | 1004.9 |
| 20260504224011 | 13 | 360 | 0.0 | 3.2 | 0.00 | 0.00 | 0.00 | 72 | 1004.9 |
| 20260504223508 | 13 | 360 | 0.0 | 3.2 | 0.00 | 0.00 | 0.00 | 69 | 1004.9 |
| 20260504223024 | 13 | 360 | 0.0 | 3.2 | 0.00 | 0.00 | 0.00 | 69 | 1005.0 |
| 20260504222510 | 14 | 360 | 0.0 | 3.2 | 0.00 | 0.00 | 0.00 | 67 | 1005.0 |
| 20260504222010 | 15 | 360 | 0.0 | 3.2 | 0.00 | 0.00 | 0.00 | 66 | 1005.0 |
| 20260504221525 | 15 | 360 | 0.0 | 3.2 | 0.00 | 0.00 | 0.00 | 64 | 1005.0 |
| 20260504221012 | 15 | 360 | 0.0 | 3.2 | 0.00 | 0.00 | 0.00 | 61 | 1004.9 |
| 20260504220510 | 15 | 360 | 0.0 | 4.8 | 0.00 | 0.00 | 0.00 | 57 | 1004.9 |
| 20260504220014 | 15 | 360 | 0.0 | 4.8 | 0.00 | 0.00 | 0.00 | 58 | 1004.8 |
| 20260504215506 | 16 | 360 | 1.6 | 14.5 | 0.00 | 0.00 | 0.00 | 54 | 1004.8 |
| 20260504215009 | 16 | 360 | 3.2 | 16.1 | 0.00 | 0.00 | 0.00 | 54 | 1004.8 |
| 20260504214518 | 16 | 360 | 3.2 | 16.1 | 0.00 | 0.00 | 0.00 | 53 | 1004.8 |
| 20260504214009 | 16 | 360 | 3.2 | 8.0 | 0.00 | 0.00 | 0.00 | 54 | 1004.8 |
| 20260504213506 | 16 | 360 | 3.2 | 11.3 | 0.00 | 0.00 | 0.00 | 55 | 1004.7 |
| 20260504213023 | 16 | 360 | 3.2 | 19.3 | 0.00 | 0.00 | 0.00 | 54 | 1004.8 |
| 20260504212512 | 16 | 360 | 4.8 | 19.3 | 0.00 | 0.00 | 0.00 | 54 | 1004.7 |
| 20260504212011 | 16 | 360 | 3.2 | 12.9 | 0.00 | 0.00 | 0.00 | 54 | 1004.8 |
| 20260504211525 | 16 | 360 | 4.8 | 12.9 | 0.00 | 0.00 | 0.00 | 55 | 1004.8 |
| 20260504211010 | 16 | 360 | 4.8 | 12.9 | 0.00 | 0.00 | 0.00 | 54 | 1004.7 |
| 20260504210510 | 16 | 360 | 1.6 | 11.3 | 0.00 | 0.00 | 0.00 | 57 | 1004.5 |
| 20260504210028 | 15 | 360 | 1.6 | 8.0 | 0.00 | 0.00 | 0.00 | 55 | 1004.6 |
| 20260504205504 | 15 | 360 | 3.2 | 19.3 | 0.00 | 0.00 | 0.00 | 56 | 1004.5 |
| 20260504205002 | 15 | 120 | 4.8 | 19.3 | 0.00 | 0.00 | 0.00 | 55 | 1004.5 |
| 20260504204504 | 16 | 298 | 4.8 | 19.3 | 0.00 | 0.00 | 0.00 | 55 | 1004.4 |
| 20260504204002 | 15 | 292 | 6.4 | 19.3 | 0.00 | 0.00 | 0.00 | 55 | 1004.4 |
| 20260504203502 | 16 | 198 | 1.6 | 19.3 | 0.00 | 0.00 | 0.00 | 57 | 1004.4 |
| 20260504203006 | 15 | 338 | 4.8 | 17.7 | 0.00 | 0.00 | 0.00 | 56 | 1004.4 |
| 20260504202506 | 15 | 360 | 3.2 | 12.9 | 0.00 | 0.00 | 0.00 | 58 | 1004.5 |
| 20260504202007 | 15 | 360 | 1.6 | 8.0 | 0.00 | 0.00 | 0.00 | 61 | 1004.5 |
| 20260504201506 | 14 | 360 | 3.2 | 9.7 | 0.00 | 0.00 | 0.00 | 61 | 1004.5 |
| 20260504201004 | 14 | 360 | 1.6 | 9.7 | 0.00 | 0.00 | 0.00 | 60 | 1004.6 |
| 20260504200508 | 14 | 360 | 3.2 | 9.7 | 0.00 | 0.00 | 0.00 | 61 | 1004.5 |
| 20260504200010 | 14 | 360 | 1.6 | 9.7 | 0.00 | 0.00 | 0.00 | 63 | 1004.5 |
| 20260504195505 | 14 | 360 | 4.8 | 9.7 | 0.00 | 0.00 | 0.00 | 61 | 1004.4 |
| 20260504195006 | 14 | 360 | 0.0 | 14.5 | 0.00 | 0.00 | 0.00 | 63 | 1004.4 |
| 20260504194504 | 13 | 360 | 4.8 | 16.1 | 0.00 | 0.00 | 0.00 | 62 | 1004.4 |
| 20260504194003 | 13 | 360 | 3.2 | 16.1 | 0.00 | 0.00 | 0.00 | 63 | 1004.4 |
| 20260504193502 | 13 | 360 | 4.8 | 16.1 | 0.00 | 0.00 | 0.00 | 62 | 1004.3 |
| 20260504193004 | 13 | 360 | 3.2 | 17.7 | 0.00 | 0.00 | 0.00 | 62 | 1004.3 |
| 20260504192502 | 13 | 360 | 3.2 | 17.7 | 0.00 | 0.00 | 0.00 | 62 | 1004.4 |
| 20260504192003 | 14 | 360 | 6.4 | 14.5 | 0.00 | 0.00 | 0.00 | 61 | 1004.3 |
| 20260504191504 | 14 | 360 | 3.2 | 9.7 | 0.00 | 0.00 | 0.00 | 60 | 1004.4 |
| 20260504191003 | 14 | 360 | 1.6 | 19.3 | 0.00 | 0.00 | 0.00 | 60 | 1004.4 |
| 20260504190506 | 14 | 360 | 6.4 | 24.1 | 0.00 | 0.00 | 0.00 | 60 | 1004.3 |
| 20260504190007 | 15 | 360 | 4.8 | 24.1 | 0.00 | 0.00 | 0.00 | 58 | 1004.4 |
| 20260504185504 | 15 | 360 | 6.4 | 19.3 | 0.00 | 0.00 | 0.00 | 56 | 1004.3 |
| 20260504185004 | 16 | 360 | 8.0 | 17.7 | 0.00 | 0.00 | 0.00 | 56 | 1004.5 |
| 20260504184515 | 16 | 360 | 3.2 | 17.7 | 0.00 | 0.00 | 0.00 | 56 | 1004.4 |